DAL1712 KMSY-KLAX

Flight info

Callsign DAL1712
Flight time N/A
Altitude 38000
Route LFT LCH IAH J86 JCT Q20 FUSCO Q4 ZEBOL ESTWD HLYWD1
Aircraft B38M/M-SDE1FGHILORVWXY/HB1

Departure

Time 2026-05-08 05:00
Airport Louis Armstrong New Orleans International Airport (KMSY)

Arrival

Time N/A
Airport Los Angeles International Airport (KLAX)
Time Latitude Longitude Altitude Speed Heading
2026-05-08 04:49 29.99410 -90.25506 8 ft 2 kts 182°
2026-05-08 04:52 29.99406 -90.25506 8 ft 2 kts 182°
2026-05-08 04:52 29.99357 -90.25509 8 ft 14 kts 182°
2026-05-08 04:52 29.99255 -90.25534 8 ft 13 kts 197°
2026-05-08 04:53 29.99203 -90.25602 9 ft 12 kts 260°
2026-05-08 04:53 29.99210 -90.25712 7 ft 15 kts 284°
2026-05-08 04:53 29.99250 -90.25828 8 ft 15 kts 316°
2026-05-08 04:53 29.99339 -90.25904 7 ft 17 kts 304°
2026-05-08 04:54 29.99374 -90.26039 6 ft 18 kts 283°
2026-05-08 04:54 29.99407 -90.26177 12 ft 18 kts 287°
2026-05-08 04:54 29.99445 -90.26327 10 ft 22 kts 285°
2026-05-08 04:54 29.99491 -90.26516 13 ft 27 kts 286°
2026-05-08 04:55 29.99544 -90.26741 13 ft 31 kts 284°
2026-05-08 04:55 29.99598 -90.26969 15 ft 29 kts 286°
2026-05-08 04:55 29.99657 -90.27204 8 ft 32 kts 286°
2026-05-08 04:55 29.99721 -90.27453 6 ft 30 kts 285°
2026-05-08 04:56 29.99745 -90.27620 7 ft 13 kts 250°
2026-05-08 04:56 29.99665 -90.27685 4 ft 17 kts 195°
2026-05-08 04:56 29.99564 -90.27744 3 ft 17 kts 237°
2026-05-08 04:56 29.99481 -90.27801 5 ft 12 kts 213°
2026-05-08 04:57 29.99470 -90.27888 5 ft 12 kts 280°
2026-05-08 04:57 29.99492 -90.27982 7 ft 13 kts 287°
2026-05-08 04:57 29.99517 -90.28091 9 ft 16 kts 284°
2026-05-08 04:57 29.99549 -90.28168 10 ft 6 kts 324°
2026-05-08 04:58 29.99562 -90.28174 9 ft 0 kts 338°
2026-05-08 04:58 29.99566 -90.28176 9 ft 2 kts 341°
2026-05-08 04:58 29.99615 -90.28180 9 ft 10 kts
2026-05-08 04:59 29.99655 -90.28125 9 ft 11 kts 96°
2026-05-08 04:59 29.99629 -90.28021 8 ft 20 kts 105°
2026-05-08 04:59 29.99544 -90.27668 3 ft 84 kts 105°
2026-05-08 04:59 29.99321 -90.26748 13 ft 151 kts 106°
2026-05-08 05:00 29.99000 -90.25374 130 ft 196 kts 107°
2026-05-08 05:00 29.98580 -90.23869 919 ft 199 kts 105°
2026-05-08 05:00 29.98163 -90.22351 1859 ft 201 kts 105°
2026-05-08 05:00 29.97716 -90.20714 2354 ft 227 kts 105°
2026-05-08 05:01 29.97234 -90.18911 3066 ft 238 kts 108°
2026-05-08 05:01 29.96364 -90.17307 4079 ft 240 kts 136°
2026-05-08 05:01 29.94883 -90.16377 4880 ft 249 kts 167°
2026-05-08 05:01 29.93155 -90.16417 5770 ft 253 kts 196°
2026-05-08 05:02 29.91655 -90.17409 6649 ft 257 kts 223°
2026-05-08 05:02 29.90715 -90.19154 7526 ft 261 kts 251°
2026-05-08 05:02 29.90600 -90.21241 8378 ft 266 kts 279°
2026-05-08 05:02 29.91310 -90.23216 9191 ft 272 kts 300°
2026-05-08 05:03 29.92351 -90.25044 9412 ft 272 kts 302°
2026-05-08 05:03 29.93419 -90.26853 9504 ft 278 kts 303°
2026-05-08 05:03 29.94506 -90.28731 9618 ft 285 kts 302°
2026-05-08 05:03 29.95606 -90.30610 9766 ft 288 kts 305°
2026-05-08 05:04 29.96865 -90.32416 9911 ft 289 kts 308°
2026-05-08 05:04 29.98170 -90.34193 10104 ft 294 kts 309°
2026-05-08 05:04 29.99525 -90.36024 10639 ft 307 kts 308°
2026-05-08 05:04 30.00957 -90.37920 11194 ft 320 kts 308°
2026-05-08 05:05 30.02407 -90.39903 11861 ft 324 kts 299°
2026-05-08 05:05 30.03255 -90.42273 12668 ft 319 kts 277°
2026-05-08 05:05 30.03238 -90.44805 13456 ft 318 kts 258°
2026-05-08 05:05 30.02769 -90.47302 14246 ft 320 kts 263°
2026-05-08 05:06 30.02690 -90.49843 15012 ft 323 kts 269°
2026-05-08 05:06 30.02753 -90.52444 15778 ft 325 kts 271°
2026-05-08 05:06 30.02913 -90.55052 16546 ft 327 kts 273°
2026-05-08 05:06 30.03141 -90.57668 17264 ft 329 kts 274°
2026-05-08 05:07 30.03410 -90.60295 17952 ft 331 kts 275°
2026-05-08 05:07 30.03701 -90.62933 18633 ft 332 kts 275°
2026-05-08 05:07 30.04004 -90.65587 19239 ft 335 kts 275°
2026-05-08 05:07 30.04319 -90.68268 19824 ft 338 kts 275°
2026-05-08 05:08 30.04635 -90.70930 20374 ft 341 kts 275°
2026-05-08 05:08 30.04961 -90.73654 20933 ft 344 kts 275°
2026-05-08 05:08 30.05288 -90.76403 21476 ft 347 kts 275°
2026-05-08 05:08 30.05619 -90.79176 21979 ft 351 kts 275°
2026-05-08 05:09 30.05952 -90.81972 22503 ft 353 kts 275°
2026-05-08 05:09 30.06288 -90.84788 22997 ft 356 kts 275°
2026-05-08 05:09 30.06625 -90.87631 23462 ft 359 kts 275°
2026-05-08 05:09 30.06965 -90.90495 23955 ft 361 kts 275°
2026-05-08 05:10 30.07301 -90.93336 24426 ft 363 kts 275°
2026-05-08 05:10 30.07986 -90.99142 25326 ft 367 kts 275°
2026-05-08 05:10 30.08331 -91.02072 25760 ft 369 kts 275°
2026-05-08 05:11 30.08676 -91.05017 26190 ft 372 kts 275°
2026-05-08 05:11 30.09024 -91.07985 26613 ft 373 kts 275°
2026-05-08 05:11 30.09373 -91.10963 27001 ft 376 kts 275°
2026-05-08 05:11 30.09722 -91.13961 27393 ft 377 kts 275°
2026-05-08 05:12 30.10073 -91.16966 27758 ft 379 kts 275°
2026-05-08 05:12 30.10424 -91.19993 28123 ft 381 kts 275°
2026-05-08 05:12 30.10772 -91.22993 28485 ft 383 kts 275°
2026-05-08 05:12 30.11126 -91.26048 28840 ft 385 kts 275°
2026-05-08 05:13 30.11481 -91.29121 29184 ft 387 kts 275°
2026-05-08 05:13 30.11837 -91.32205 29524 ft 389 kts 275°
2026-05-08 05:13 30.12193 -91.35307 29860 ft 390 kts 275°
2026-05-08 05:13 30.12550 -91.38418 30190 ft 392 kts 275°
2026-05-08 05:14 30.12909 -91.41547 30492 ft 394 kts 275°
2026-05-08 05:14 30.13267 -91.44684 30783 ft 395 kts 275°
2026-05-08 05:14 30.13623 -91.47801 31069 ft 398 kts 275°
2026-05-08 05:14 30.13984 -91.50974 31341 ft 400 kts 274°
2026-05-08 05:15 30.14346 -91.54166 31630 ft 401 kts 274°
2026-05-08 05:15 30.14708 -91.57358 31979 ft 401 kts 274°
2026-05-08 05:15 30.15068 -91.60549 32367 ft 400 kts 274°
2026-05-08 05:15 30.15428 -91.63734 32768 ft 399 kts 274°
2026-05-08 05:16 30.15785 -91.66910 33164 ft 398 kts 274°
2026-05-08 05:16 30.16140 -91.70072 33554 ft 396 kts 274°
2026-05-08 05:16 30.16494 -91.73230 33927 ft 395 kts 274°
2026-05-08 05:16 30.16841 -91.76327 34285 ft 394 kts 274°
2026-05-08 05:17 30.17191 -91.79464 34648 ft 393 kts 274°
2026-05-08 05:17 30.17539 -91.82590 35018 ft 391 kts 274°
2026-05-08 05:17 30.17885 -91.85701 35404 ft 389 kts 274°
2026-05-08 05:17 30.18229 -91.88802 35750 ft 388 kts 274°
2026-05-08 05:18 30.18570 -91.91880 36111 ft 386 kts 274°
2026-05-08 05:18 30.18909 -91.94949 36424 ft 384 kts 273°
2026-05-08 05:18 30.19247 -91.98008 36717 ft 383 kts 273°
2026-05-08 05:18 30.19339 -92.00029 36902 ft 378 kts 265°
2026-05-08 05:19 30.19196 -92.03043 37268 ft 374 kts 265°
2026-05-08 05:19 30.19042 -92.06997 37697 ft 370 kts 265°
2026-05-08 05:19 30.18917 -92.09958 37999 ft 368 kts 265°
2026-05-08 05:20 30.18662 -92.15837 38032 ft 362 kts 265°
2026-05-08 05:20 30.18405 -92.21640 38035 ft 362 kts 265°
2026-05-08 05:21 30.18190 -92.26466 38037 ft 362 kts 265°
2026-05-08 05:21 30.17928 -92.32277 38037 ft 362 kts 265°
2026-05-08 05:22 30.17621 -92.39025 38045 ft 362 kts 265°
2026-05-08 05:22 30.17400 -92.43848 38043 ft 361 kts 265°
2026-05-08 05:23 30.17131 -92.49638 38044 ft 361 kts 265°
2026-05-08 05:23 30.16860 -92.55423 38052 ft 361 kts 265°
2026-05-08 05:24 30.16587 -92.61203 38053 ft 360 kts 265°
2026-05-08 05:24 30.16314 -92.66941 38054 ft 360 kts 265°
2026-05-08 05:25 30.16035 -92.72713 38062 ft 360 kts 265°
2026-05-08 05:25 30.15756 -92.78474 38054 ft 359 kts 264°
2026-05-08 05:26 30.15473 -92.84239 38055 ft 359 kts 264°
2026-05-08 05:26 30.15190 -92.89961 38049 ft 359 kts 264°
2026-05-08 05:27 30.14902 -92.95723 38045 ft 359 kts 264°
2026-05-08 05:27 30.14614 -93.01468 38044 ft 358 kts 264°
2026-05-08 05:28 30.14324 -93.07214 38045 ft 358 kts 264°
2026-05-08 05:28 30.13960 -93.12911 38054 ft 357 kts 263°
2026-05-08 05:29 30.13522 -93.18636 38046 ft 358 kts 263°
2026-05-08 05:29 30.13093 -93.24368 38046 ft 358 kts 263°
2026-05-08 05:30 30.12663 -93.30105 38046 ft 359 kts 263°
2026-05-08 05:30 30.12232 -93.35816 38046 ft 359 kts 263°
2026-05-08 05:31 30.11797 -93.41561 38045 ft 359 kts 263°
2026-05-08 05:31 30.11359 -93.47308 38047 ft 359 kts 263°
2026-05-08 05:32 30.10919 -93.53053 38045 ft 359 kts 263°
2026-05-08 05:32 30.10474 -93.58815 38044 ft 360 kts 263°
2026-05-08 05:33 30.10030 -93.64540 38046 ft 360 kts 263°
2026-05-08 05:33 30.09581 -93.70298 38048 ft 360 kts 262°
2026-05-08 05:34 30.09129 -93.76060 38055 ft 361 kts 262°
2026-05-08 05:34 30.08676 -93.81800 38057 ft 362 kts 262°
2026-05-08 05:35 30.08217 -93.87581 38054 ft 362 kts 262°
2026-05-08 05:35 30.07757 -93.93355 38047 ft 361 kts 262°
2026-05-08 05:36 30.07294 -93.99133 38043 ft 361 kts 262°
2026-05-08 05:36 30.06830 -94.04873 38037 ft 361 kts 262°
2026-05-08 05:37 30.06362 -94.10644 38021 ft 361 kts 262°
2026-05-08 05:37 30.05891 -94.16421 38018 ft 361 kts 262°
2026-05-08 05:38 30.05418 -94.22191 38008 ft 361 kts 262°
2026-05-08 05:38 30.04943 -94.27958 38008 ft 360 kts 262°
2026-05-08 05:39 30.04466 -94.33716 38010 ft 360 kts 262°
2026-05-08 05:39 30.03989 -94.39432 38009 ft 360 kts 262°
2026-05-08 05:40 30.03507 -94.45181 38004 ft 360 kts 262°
2026-05-08 05:40 30.03025 -94.50918 38007 ft 359 kts 262°
2026-05-08 05:41 30.02539 -94.56652 38001 ft 358 kts 262°
2026-05-08 05:41 30.02055 -94.62337 38000 ft 359 kts 262°
2026-05-08 05:42 30.01566 -94.68061 37999 ft 358 kts 262°
2026-05-08 05:42 30.01074 -94.73785 37999 ft 359 kts 262°
2026-05-08 05:43 30.00580 -94.79502 37999 ft 358 kts 262°
2026-05-08 05:43 30.00087 -94.85172 37998 ft 358 kts 262°
2026-05-08 05:44 29.99589 -94.90876 37994 ft 359 kts 262°
2026-05-08 05:44 29.99084 -94.96638 38008 ft 362 kts 262°
2026-05-08 05:45 29.98575 -95.02400 38006 ft 360 kts 262°
2026-05-08 05:45 29.98070 -95.08114 38000 ft 361 kts 262°
2026-05-08 05:46 29.97557 -95.13864 37999 ft 360 kts 261°
2026-05-08 05:46 29.97044 -95.19608 38006 ft 360 kts 261°
2026-05-08 05:47 29.96529 -95.25351 38009 ft 360 kts 261°
2026-05-08 05:47 29.96016 -95.31051 38008 ft 359 kts 261°
2026-05-08 05:48 29.96168 -95.36807 38031 ft 365 kts 274°
2026-05-08 05:48 29.97016 -95.42593 38010 ft 366 kts 274°
2026-05-08 05:49 29.97916 -95.48374 38002 ft 366 kts 274°
2026-05-08 05:49 29.98829 -95.54106 38009 ft 366 kts 274°
2026-05-08 05:50 29.99749 -95.59877 38008 ft 366 kts 274°
2026-05-08 05:50 30.00667 -95.65646 38003 ft 364 kts 274°
2026-05-08 05:51 30.01578 -95.71388 38006 ft 364 kts 274°
2026-05-08 05:51 30.02480 -95.77089 38009 ft 364 kts 274°
2026-05-08 05:52 30.03386 -95.82832 38009 ft 364 kts 274°
2026-05-08 05:52 30.04289 -95.88576 38008 ft 364 kts 274°
2026-05-08 05:53 30.05189 -95.94318 38012 ft 364 kts 274°
2026-05-08 05:53 30.06088 -96.00062 38018 ft 364 kts 274°
2026-05-08 05:54 30.06977 -96.05766 38017 ft 364 kts 274°
2026-05-08 05:54 30.07870 -96.11516 38018 ft 364 kts 274°
2026-05-08 05:55 30.08760 -96.17262 38023 ft 363 kts 274°
2026-05-08 05:55 30.09648 -96.23006 38025 ft 363 kts 274°
2026-05-08 05:56 30.10527 -96.28715 38027 ft 363 kts 274°
2026-05-08 05:56 30.11408 -96.34458 38028 ft 363 kts 274°
2026-05-08 05:57 30.12287 -96.40194 38033 ft 362 kts 274°
2026-05-08 05:57 30.13162 -96.45926 38033 ft 362 kts 274°
2026-05-08 05:58 30.14028 -96.51617 38034 ft 363 kts 273°
2026-05-08 05:58 30.14900 -96.57367 38036 ft 363 kts 273°
2026-05-08 05:59 30.15769 -96.63110 38029 ft 363 kts 273°
2026-05-08 05:59 30.16634 -96.68847 38032 ft 362 kts 273°
2026-05-08 06:00 30.17496 -96.74584 38039 ft 363 kts 273°
2026-05-08 06:00 30.18352 -96.80293 38042 ft 363 kts 273°
2026-05-08 06:01 30.19210 -96.86039 38049 ft 363 kts 272°
2026-05-08 06:01 30.20068 -96.91796 38054 ft 364 kts 272°
2026-05-08 06:02 30.20923 -96.97555 38055 ft 363 kts 272°
2026-05-08 06:02 30.21772 -97.03280 38054 ft 364 kts 272°
2026-05-08 06:03 30.22623 -97.09052 38053 ft 364 kts 272°
2026-05-08 06:03 30.23471 -97.14827 38055 ft 364 kts 272°
2026-05-08 06:04 30.24318 -97.20603 38054 ft 364 kts 272°
2026-05-08 06:04 30.25156 -97.26342 38057 ft 365 kts 272°
2026-05-08 06:05 30.25999 -97.32127 38063 ft 365 kts 272°
2026-05-08 06:05 30.26841 -97.37922 38062 ft 365 kts 272°
2026-05-08 06:06 30.27677 -97.43705 38066 ft 364 kts 272°
2026-05-08 06:06 30.28506 -97.49446 38057 ft 365 kts 272°
2026-05-08 06:07 30.29340 -97.55248 38055 ft 366 kts 272°
2026-05-08 06:07 30.30172 -97.61055 38054 ft 366 kts 272°
2026-05-08 06:08 30.31002 -97.66861 38055 ft 366 kts 272°
2026-05-08 06:08 30.31829 -97.72670 38056 ft 366 kts 272°
2026-05-08 06:09 30.32648 -97.78439 38055 ft 366 kts 272°
2026-05-08 06:09 30.33470 -97.84245 38056 ft 366 kts 272°
2026-05-08 06:10 30.34291 -97.90072 38064 ft 367 kts 272°
2026-05-08 06:10 30.35104 -97.95862 38060 ft 367 kts 272°
2026-05-08 06:11 30.35921 -98.01687 38072 ft 367 kts 272°
2026-05-08 06:11 30.36735 -98.07520 38070 ft 367 kts 272°
2026-05-08 06:12 30.37546 -98.13353 38071 ft 367 kts 272°
2026-05-08 06:12 30.38351 -98.19154 38067 ft 367 kts 272°
2026-05-08 06:13 30.39158 -98.24991 38072 ft 367 kts 272°
2026-05-08 06:13 30.39963 -98.30823 38072 ft 366 kts 272°
2026-05-08 06:14 30.40761 -98.36645 38072 ft 366 kts 272°
2026-05-08 06:14 30.41557 -98.42472 38074 ft 366 kts 272°
2026-05-08 06:15 30.42345 -98.48248 38070 ft 365 kts 272°
2026-05-08 06:15 30.43136 -98.54068 38068 ft 366 kts 272°
2026-05-08 06:16 30.43924 -98.59896 38077 ft 366 kts 272°
2026-05-08 06:16 30.44711 -98.65721 38075 ft 366 kts 272°
2026-05-08 06:17 30.45877 -98.74408 38057 ft 365 kts 271°
2026-05-08 06:17 30.46656 -98.80221 38059 ft 365 kts 271°
2026-05-08 06:18 30.47432 -98.86041 38058 ft 366 kts 271°
2026-05-08 06:18 30.48204 -98.91861 38065 ft 366 kts 271°
2026-05-08 06:19 30.48970 -98.97644 38064 ft 365 kts 271°
2026-05-08 06:19 30.49737 -99.03459 38060 ft 365 kts 271°
2026-05-08 06:20 30.50502 -99.09279 38060 ft 365 kts 271°
2026-05-08 06:20 30.51265 -99.15100 38070 ft 365 kts 271°
2026-05-08 06:21 30.52019 -99.20875 38065 ft 364 kts 271°
2026-05-08 06:21 30.52775 -99.26691 38060 ft 365 kts 271°
2026-05-08 06:22 30.53528 -99.32506 38052 ft 365 kts 271°
2026-05-08 06:22 30.54278 -99.38315 38058 ft 364 kts 271°
2026-05-08 06:23 30.55026 -99.44117 38052 ft 363 kts 271°
2026-05-08 06:23 30.55765 -99.49889 38049 ft 365 kts 270°
2026-05-08 06:24 30.56509 -99.55716 38050 ft 365 kts 270°
2026-05-08 06:24 30.57250 -99.61537 38046 ft 365 kts 270°
2026-05-08 06:25 30.57991 -99.67372 38047 ft 366 kts 270°
2026-05-08 06:25 30.58723 -99.73163 38044 ft 365 kts 270°
2026-05-08 06:26 30.59459 -99.78993 38043 ft 365 kts 270°
2026-05-08 06:26 30.59991 -99.81898 38025 ft 377 kts 281°
2026-05-08 06:26 30.61057 -99.84706 38056 ft 381 kts 283°
2026-05-08 06:27 30.63186 -99.90356 38045 ft 383 kts 283°
2026-05-08 06:27 30.65366 -99.95996 38055 ft 382 kts 284°
2026-05-08 06:28 30.67536 -100.01573 38051 ft 381 kts 284°
2026-05-08 06:28 30.69722 -100.07203 38058 ft 384 kts 283°
2026-05-08 06:29 30.71915 -100.12854 38065 ft 383 kts 283°
2026-05-08 06:29 30.74097 -100.18487 38063 ft 382 kts 283°
2026-05-08 06:30 30.76264 -100.24087 38063 ft 382 kts 283°
2026-05-08 06:30 30.78442 -100.29726 38068 ft 382 kts 283°
2026-05-08 06:31 30.80615 -100.35362 38077 ft 382 kts 283°
2026-05-08 06:31 30.82787 -100.41003 38085 ft 382 kts 283°
2026-05-08 06:32 30.84954 -100.46638 38081 ft 382 kts 283°
2026-05-08 06:32 30.87099 -100.52229 38089 ft 381 kts 283°
2026-05-08 06:33 30.89260 -100.57869 38091 ft 381 kts 283°
2026-05-08 06:33 30.91415 -100.63501 38082 ft 381 kts 283°
2026-05-08 06:34 30.93568 -100.69137 38081 ft 381 kts 283°
2026-05-08 06:34 30.95705 -100.74741 38088 ft 381 kts 283°
2026-05-08 06:35 30.97855 -100.80389 38087 ft 381 kts 283°
2026-05-08 06:35 31.00001 -100.86033 38089 ft 380 kts 283°
2026-05-08 06:36 31.02144 -100.91680 38080 ft 381 kts 283°
2026-05-08 06:36 31.04271 -100.97293 38081 ft 382 kts 283°
2026-05-08 06:37 31.06419 -101.02969 38081 ft 383 kts 283°
2026-05-08 06:37 31.08562 -101.08641 38078 ft 381 kts 282°
2026-05-08 06:38 31.10692 -101.14291 38082 ft 381 kts 282°
2026-05-08 06:38 31.12812 -101.19919 38079 ft 381 kts 282°
2026-05-08 06:39 31.14942 -101.25583 38082 ft 381 kts 282°
2026-05-08 06:39 31.17068 -101.31248 38079 ft 381 kts 281°
2026-05-08 06:40 31.17782 -101.34139 38072 ft 363 kts 269°
2026-05-08 06:40 31.18186 -101.37054 38070 ft 366 kts 271°
2026-05-08 06:40 31.19057 -101.42867 38080 ft 366 kts 270°
2026-05-08 06:41 31.19882 -101.48718 38077 ft 365 kts 270°
2026-05-08 06:41 31.20691 -101.54570 38087 ft 365 kts 270°
2026-05-08 06:42 31.21494 -101.60424 38083 ft 365 kts 270°
2026-05-08 06:42 31.22293 -101.66260 38081 ft 366 kts 270°
2026-05-08 06:43 31.23094 -101.72133 38082 ft 366 kts 270°
2026-05-08 06:43 31.23892 -101.78005 38080 ft 366 kts 270°
2026-05-08 06:44 31.24687 -101.83882 38074 ft 366 kts 270°
2026-05-08 06:44 31.25474 -101.89709 38075 ft 366 kts 270°
2026-05-08 06:45 31.26263 -101.95581 38069 ft 366 kts 269°
2026-05-08 06:45 31.27053 -102.01475 38075 ft 367 kts 269°
2026-05-08 06:46 31.27841 -102.07374 38065 ft 368 kts 269°
2026-05-08 06:46 31.28621 -102.13241 38063 ft 368 kts 269°
2026-05-08 06:47 31.29404 -102.19144 38067 ft 368 kts 269°
2026-05-08 06:47 31.30184 -102.25050 38061 ft 367 kts 269°
2026-05-08 06:48 31.30964 -102.30974 38071 ft 369 kts 269°
2026-05-08 06:48 31.31735 -102.36860 38057 ft 368 kts 269°
2026-05-08 06:49 31.32510 -102.42794 38059 ft 370 kts 269°
2026-05-08 06:49 31.33284 -102.48737 38054 ft 369 kts 269°
2026-05-08 06:50 31.34054 -102.54680 38055 ft 370 kts 269°
2026-05-08 06:50 31.34822 -102.60622 38054 ft 369 kts 269°
2026-05-08 06:51 31.35583 -102.66531 38050 ft 370 kts 269°
2026-05-08 06:51 31.36346 -102.72486 38046 ft 370 kts 269°
2026-05-08 06:52 31.37108 -102.78446 38044 ft 370 kts 269°
2026-05-08 06:52 31.37867 -102.84413 38045 ft 372 kts 269°
2026-05-08 06:53 31.38621 -102.90361 38045 ft 372 kts 269°
2026-05-08 06:53 31.39378 -102.96350 38047 ft 372 kts 269°
2026-05-08 06:54 31.40132 -103.02344 38042 ft 373 kts 269°
2026-05-08 06:54 31.40884 -103.08352 38042 ft 374 kts 269°
2026-05-08 06:55 31.41631 -103.14334 38046 ft 374 kts 269°
2026-05-08 06:55 31.42381 -103.20362 38047 ft 374 kts 269°
2026-05-08 06:56 31.43127 -103.26386 38047 ft 374 kts 269°
2026-05-08 06:56 31.43872 -103.32426 38049 ft 376 kts 269°
2026-05-08 06:57 31.44612 -103.38444 38043 ft 376 kts 269°
2026-05-08 06:57 31.45356 -103.44506 38046 ft 377 kts 269°
2026-05-08 06:58 31.46097 -103.50574 38046 ft 377 kts 269°
2026-05-08 06:58 31.46840 -103.56653 38044 ft 378 kts 269°
2026-05-08 06:59 31.47686 -103.62713 38045 ft 380 kts 269°
2026-05-08 06:59 31.48532 -103.68820 38044 ft 380 kts 269°
2026-05-08 07:00 31.49376 -103.74939 38044 ft 380 kts 269°
2026-05-08 07:00 31.50215 -103.81054 38045 ft 380 kts 269°
2026-05-08 07:01 31.51046 -103.87132 38048 ft 380 kts 269°
2026-05-08 07:01 31.51881 -103.93253 38046 ft 380 kts 269°
2026-05-08 07:02 31.52711 -103.99370 38047 ft 380 kts 269°
2026-05-08 07:02 31.53541 -104.05503 38043 ft 382 kts 269°
2026-05-08 07:03 31.54371 -104.11665 38046 ft 383 kts 269°
2026-05-08 07:03 31.55194 -104.17793 38044 ft 383 kts 269°
2026-05-08 07:04 31.56019 -104.23959 38041 ft 383 kts 269°
2026-05-08 07:04 31.56841 -104.30122 38045 ft 383 kts 269°
2026-05-08 07:05 31.57660 -104.36290 38045 ft 383 kts 269°
2026-05-08 07:05 31.58470 -104.42416 38046 ft 383 kts 269°
2026-05-08 07:06 31.59283 -104.48583 38044 ft 383 kts 269°
2026-05-08 07:06 31.60094 -104.54764 38036 ft 384 kts 269°
2026-05-08 07:07 31.60904 -104.60959 38038 ft 385 kts 269°
2026-05-08 07:07 31.61707 -104.67122 38035 ft 385 kts 269°
2026-05-08 07:08 31.62513 -104.73338 38034 ft 385 kts 269°
2026-05-08 07:08 31.63316 -104.79548 38038 ft 385 kts 269°
2026-05-08 07:09 31.64117 -104.85770 38034 ft 385 kts 269°
2026-05-08 07:09 31.64910 -104.91952 38034 ft 386 kts 269°
2026-05-08 07:10 31.65707 -104.98196 38036 ft 387 kts 269°
2026-05-08 07:10 31.66503 -105.04447 38036 ft 387 kts 269°
2026-05-08 07:11 31.67296 -105.10708 38041 ft 388 kts 269°
2026-05-08 07:11 31.68083 -105.16943 38035 ft 389 kts 269°
2026-05-08 07:12 31.68874 -105.23235 38038 ft 390 kts 269°